TimeEET,TemperatureF,Dew PointF,Humidity,Sea Level PressureIn,VisibilityMPH,Wind Direction,Wind SpeedMPH,Gust SpeedMPH,PrecipitationIn,Events,Conditions,WindDirDegrees,DateUTC
12:00 AM,68.0,62.6,83,29.95,3.7,NE,4.6,-,N/A,,Unknown,50,2013-11-11 22:00:00
1:00 AM,68.0,57.2,68,29.95,-9999.0,ENE,4.6,-,N/A,,Clear,60,2013-11-11 23:00:00
2:00 AM,67,56,59,29.95,6,NE,3.5,,,,,50,2013-11-12 00:00:00
2:00 AM,68.0,55.4,64,29.95,-9999.0,NE,3.5,-,N/A,,Clear,50,2013-11-12 00:00:00
3:00 AM,66.2,55.4,68,29.92,-9999.0,East,2.3,-,N/A,,Clear,80,2013-11-12 01:00:00
4:00 AM,64.4,55.4,73,29.92,-9999.0,ESE,2.3,-,N/A,,Clear,120,2013-11-12 02:00:00
5:00 AM,62.6,55.4,77,29.95,-9999.0,SSE,2.3,-,N/A,,Clear,160,2013-11-12 03:00:00
6:00 AM,60.8,59.0,94,29.95,-9999.0,South,4.6,-,N/A,,Clear,180,2013-11-12 04:00:00
8:00 AM,67,63,82,29.98,6,ESE,2.3,,,,Scattered Clouds,120,2013-11-12 06:00:00
8:00 AM,68.0,62.6,83,29.98,6.2,ESE,2.3,-,N/A,,Partly Cloudy,120,2013-11-12 06:00:00
9:00 AM,75.2,60.8,61,29.98,-9999.0,SSE,2.3,-,N/A,,Clear,150,2013-11-12 07:00:00
11:00 AM,81,56,32,29.97,6,SSE,3.5,,,,Scattered Clouds,150,2013-11-12 09:00:00
11:00 AM,80.6,55.4,42,29.95,6.2,SSE,3.5,-,N/A,,Partly Cloudy,150,2013-11-12 09:00:00
12:00 PM,82.4,55.4,39,29.95,6.2,East,2.3,-,N/A,,Partly Cloudy,80,2013-11-12 10:00:00
1:00 PM,80.6,59.0,48,29.92,6.2,North,5.8,-,N/A,,Partly Cloudy,350,2013-11-12 11:00:00
3:00 PM,78.8,60.8,54,29.92,6.2,North,8.1,-,N/A,,Partly Cloudy,10,2013-11-12 13:00:00
4:00 PM,77.0,62.6,61,29.92,6.2,North,9.2,-,N/A,,Partly Cloudy,10,2013-11-12 14:00:00
5:00 PM,75,66,66,29.94,6,North,8.1,,,,,10,2013-11-12 15:00:00
5:00 PM,75.2,66.2,73,29.92,-9999.0,North,8.1,-,N/A,,Clear,10,2013-11-12 15:00:00
6:00 PM,73.4,66.2,78,29.95,-9999.0,North,4.6,-,N/A,,Clear,10,2013-11-12 16:00:00
7:00 PM,71.6,64.4,78,29.95,-9999.0,NNE,2.3,-,N/A,,Clear,30,2013-11-12 17:00:00
8:00 PM,69,63,77,29.97,6,Calm,Calm,,,,Partly Cloudy,,2013-11-12 18:00:00
8:00 PM,69.8,62.6,78,29.95,-9999.0,Calm,Calm,-,N/A,,Clear,0,2013-11-12 18:00:00
9:00 PM,68.0,62.6,83,29.95,6.2,SW,2.3,-,N/A,,Scattered Clouds,230,2013-11-12 19:00:00
10:00 PM,66.2,62.6,88,29.95,6.2,North,1.2,-,N/A,,Scattered Clouds,360,2013-11-12 20:00:00
11:00 PM,65,63,92,29.96,6,Calm,Calm,,,,Partly Cloudy,,2013-11-12 21:00:00
11:00 PM,64.4,62.6,94,29.95,6.2,Calm,Calm,-,N/A,,Scattered Clouds,0,2013-11-12 21:00:00